Blythe, CA

8:15 PM PDT on June 22, 2017 (GMT -0700)
Blythe

Weather History for KBLH - February, 2014

Change the Weather History Date:

Monday, February 10, 2014

  Actual Average Record
Temperature  
Mean Temperature 66 °F -  
Max Temperature 81 °F 67 °F 84 °F (2016)
Min Temperature 51 °F 44 °F 32 °F (1986)
Cooling Degree Days 1    
Growing Degree Days 16 (Base 50)    
Moisture  
Dew Point 36 °F    
Average Humidity 34    
Maximum Humidity 54    
Minimum Humidity 22    
Precipitation  
Precipitation 0.00 in - - ()
Sea Level Pressure  
Sea Level Pressure 29.93 in    
Wind  
Wind Speed 6 mph (NNW)    
Max Wind Speed 22 mph    
Max Gust Speed 29 mph    
Visibility 10 miles    
Events      
Averages and records for this station are not official NWS values.
T = Trace of Precipitation, MM = Missing Value Source: NWS Daily Summary

Daily Weather History Graph

Daily Weather History Graph

Search for Another Location

Airport or City:

Trip Planner

Search our weather history database for the weather conditions in past years. The results will help you decide how hot, cold, wet, or windy it might be!

Date:

Astronomy

Feb. 10, 2014 Rise Set
Actual Time 6:27 AM PST 5:18 PM PST
Civil Twilight 6:02 AM PST 5:44 PM PST
Nautical Twilight 5:32 AM PST 6:13 PM PST
Astronomical Twilight 5:03 AM PST 6:42 PM PST
Moon 1:55 PM PST (2/10) 3:19 AM PST (2/10)
Length of Visible Light 11h 42m
Length of Day
10h 51m
Waxing Gibbous, 85% of the Moon is Illuminated
Feb 10
Waxing Gibbous
Feb 14
Full
Feb 22
Last Quarter
Mar 1
New
Mar 8
First Quarter

Hourly Weather History & Observations

Time (PST) Temp. Dew Point Humidity Pressure Visibility Wind Dir Wind Speed Gust Speed Precip Events Conditions
12:52 AM 57.0 °F 34.0 °F 42% 29.96 in 10.0 mi North 4.6 mph - N/A   Clear
1:52 AM 57.0 °F 34.0 °F 42% 29.96 in 10.0 mi Calm Calm - N/A   Clear
2:52 AM 54.0 °F 33.1 °F 45% 29.95 in 10.0 mi North 6.9 mph - N/A   Clear
3:52 AM 54.0 °F 34.0 °F 47% 29.92 in 10.0 mi Calm Calm - N/A   Clear
4:52 AM 55.0 °F 34.0 °F 45% 29.92 in 10.0 mi Calm Calm - N/A   Clear
5:52 AM 51.1 °F 35.1 °F 54% 29.95 in 10.0 mi Calm Calm - N/A   Clear
6:52 AM 51.1 °F 35.1 °F 54% 29.96 in 10.0 mi North 5.8 mph - N/A   Clear
7:52 AM 59.0 °F 37.0 °F 44% 29.99 in 10.0 mi North 6.9 mph - N/A   Clear
8:52 AM 62.1 °F 37.0 °F 39% 29.99 in 10.0 mi Calm Calm - N/A   Clear
9:52 AM 70.0 °F 35.1 °F 28% 29.99 in 10.0 mi SSW 5.8 mph - N/A   Clear
10:52 AM 73.0 °F 35.1 °F 25% 29.97 in 10.0 mi Calm Calm - N/A   Clear
11:52 AM 78.1 °F 37.0 °F 23% 29.94 in 10.0 mi NE 5.8 mph - N/A   Clear
12:52 PM 81.0 °F 39.0 °F 22% 29.90 in 10.0 mi NW 21.9 mph 27.6 mph N/A   Clear
1:52 PM 81.0 °F 39.0 °F 22% 29.88 in 10.0 mi NW 15.0 mph 28.8 mph N/A   Clear
2:52 PM 81.0 °F 39.0 °F 22% 29.86 in 10.0 mi NNW 18.4 mph 26.5 mph N/A   Clear
3:52 PM 81.0 °F 39.0 °F 22% 29.87 in 10.0 mi NNW 15.0 mph - N/A   Clear
4:52 PM 79.0 °F 39.0 °F 24% 29.88 in 10.0 mi NNW 15.0 mph 20.7 mph N/A   Clear
5:52 PM 75.0 °F 37.9 °F 26% 29.89 in 10.0 mi NW 10.4 mph - N/A   Clear
6:52 PM 73.9 °F 35.1 °F 24% 29.91 in 10.0 mi North 11.5 mph - N/A   Clear
7:52 PM 68.0 °F 32.0 °F 26% 29.92 in 10.0 mi NNW 9.2 mph - N/A   Clear
8:52 PM 63.0 °F 32.0 °F 31% 29.94 in 10.0 mi NW 5.8 mph - N/A   Clear
9:52 PM 63.0 °F 34.0 °F 34% 29.94 in 10.0 mi NW 10.4 mph - N/A   Clear
10:52 PM 63.0 °F 33.1 °F 33% 29.95 in 10.0 mi NNW 9.2 mph - N/A   Clear
11:52 PM 62.1 °F 33.1 °F 34% 29.95 in 10.0 mi West 8.1 mph - N/A   Clear